Terminal Aerodrome Forecast
Issued by NWS

Home | Current Version | Previous Version | Text Only | Print | Product List | Glossary On
Versions: 1 2 3 4 5 6 7 8 9 10 11 12 13 14 15 16 17 18 19 20 21 22 23 24 25 26 27 28 29 30
000
FTAK31 PANC 110111 AAA
TAFAGK
TAF AMD
PAGK 110111Z 1101/1124 16014KT P6SM -SHRA BKN060 OVC100
     FM110600 16008KT P6SM VCSH BKN050 OVC100
     FM112100 16013G20KT P6SM SCT050 BKN100=

USA.gov is the U.S. government's official web portal to all federal, state and local government web resources and services.